RPA5642 KMKE-KLGA

Flight info

Callsign RPA5642
Flight time N/A
Altitude 33000
Route SQUIB HAUCK HRRSH HOCKE Q816 KELTI NABOR RAHKS VADDR1
Aircraft E75L/M-SDE3GILORVW/S

Departure

Time 2026-04-26 16:41
Airport General Mitchell International Airport (KMKE)

Arrival

Time N/A
Airport LaGuardia Airport (KLGA)
Time Latitude Longitude Altitude Speed Heading
2026-04-26 16:32 42.94206 -87.91680 686 ft 0 kts 48°
2026-04-26 16:34 42.94207 -87.91678 686 ft 0 kts 57°
2026-04-26 16:34 42.94210 -87.91672 682 ft 1 kts 60°
2026-04-26 16:34 42.94210 -87.91670 683 ft 0 kts 65°
2026-04-26 16:38 42.94211 -87.91666 683 ft 0 kts 86°
2026-04-26 16:38 42.94210 -87.91664 686 ft 0 kts 112°
2026-04-26 16:38 42.94207 -87.91661 686 ft 0 kts 154°
2026-04-26 16:38 42.94176 -87.91651 685 ft 9 kts 174°
2026-04-26 16:39 42.94088 -87.91659 686 ft 13 kts 196°
2026-04-26 16:39 42.94047 -87.91703 685 ft 10 kts 234°
2026-04-26 16:39 42.94020 -87.91784 685 ft 8 kts 230°
2026-04-26 16:39 42.94011 -87.91793 682 ft 0 kts 201°
2026-04-26 16:40 42.94009 -87.91793 683 ft 1 kts 200°
2026-04-26 16:40 42.93990 -87.91796 686 ft 7 kts 174°
2026-04-26 16:40 42.93925 -87.91759 686 ft 12 kts 124°
2026-04-26 16:40 42.93957 -87.91576 682 ft 51 kts 71°
2026-04-26 16:41 42.94154 -87.90767 683 ft 127 kts 72°
2026-04-26 16:41 42.94461 -87.89475 1180 ft 155 kts 73°
2026-04-26 16:41 42.94803 -87.87886 1787 ft 188 kts 76°
2026-04-26 16:41 42.95209 -87.86190 2979 ft 188 kts 72°
2026-04-26 16:42 42.95675 -87.84453 3998 ft 200 kts 72°
2026-04-26 16:42 42.96197 -87.82622 4876 ft 219 kts 72°
2026-04-26 16:42 42.96700 -87.80503 5332 ft 253 kts 77°
2026-04-26 16:42 42.97049 -87.78100 6332 ft 257 kts 90°
2026-04-26 16:43 42.96960 -87.75702 7580 ft 250 kts 98°
2026-04-26 16:43 42.96805 -87.73373 8852 ft 245 kts 98°
2026-04-26 16:43 42.96651 -87.71054 9970 ft 245 kts 98°
2026-04-26 16:43 42.96493 -87.68711 10895 ft 250 kts 98°
2026-04-26 16:44 42.96331 -87.66318 11748 ft 256 kts 98°
2026-04-26 16:44 42.96159 -87.63902 12569 ft 261 kts 99°
2026-04-26 16:44 42.95968 -87.61406 13385 ft 267 kts 99°
2026-04-26 16:44 42.95779 -87.58810 14173 ft 276 kts 98°
2026-04-26 16:45 42.95588 -87.56157 14712 ft 298 kts 98°
2026-04-26 16:45 42.95377 -87.53219 15193 ft 323 kts 98°
2026-04-26 16:45 42.95152 -87.50057 15706 ft 346 kts 98°
2026-04-26 16:45 42.94919 -87.46726 16509 ft 357 kts 98°
2026-04-26 16:46 42.94682 -87.43321 17485 ft 363 kts 98°
2026-04-26 16:46 42.94440 -87.39871 18356 ft 368 kts 98°
2026-04-26 16:46 42.94189 -87.36370 19058 ft 374 kts 98°
2026-04-26 16:46 42.93932 -87.32821 19782 ft 379 kts 98°
2026-04-26 16:47 42.93669 -87.29214 20486 ft 384 kts 98°
2026-04-26 16:47 42.93401 -87.25571 21143 ft 389 kts 98°
2026-04-26 16:47 42.93126 -87.21874 21770 ft 394 kts 98°
2026-04-26 16:47 42.92846 -87.18128 22381 ft 398 kts 98°
2026-04-26 16:48 42.92560 -87.14346 22977 ft 403 kts 98°
2026-04-26 16:48 42.92270 -87.10526 23572 ft 407 kts 98°
2026-04-26 16:48 42.91992 -87.06662 24105 ft 412 kts 95°
2026-04-26 16:48 42.91976 -87.02730 24627 ft 416 kts 88°
2026-04-26 16:49 42.92142 -86.98822 25168 ft 419 kts 88°
2026-04-26 16:49 42.92298 -86.94840 25705 ft 423 kts 88°
2026-04-26 16:49 42.92450 -86.90818 26227 ft 426 kts 87°
2026-04-26 16:49 42.92593 -86.86762 26738 ft 429 kts 87°
2026-04-26 16:50 42.92732 -86.82683 27230 ft 432 kts 87°
2026-04-26 16:50 42.92869 -86.78579 27691 ft 435 kts 87°
2026-04-26 16:50 42.93005 -86.74429 28151 ft 438 kts 87°
2026-04-26 16:50 42.93137 -86.70263 28609 ft 441 kts 87°
2026-04-26 16:51 42.93269 -86.66072 29056 ft 444 kts 87°
2026-04-26 16:51 42.93399 -86.61845 29475 ft 447 kts 87°
2026-04-26 16:51 42.93529 -86.57593 29904 ft 450 kts 86°
2026-04-26 16:51 42.93658 -86.53315 30345 ft 452 kts 86°
2026-04-26 16:52 42.93786 -86.49014 30675 ft 455 kts 86°
2026-04-26 16:52 42.93870 -86.46157 30891 ft 456 kts 86°
2026-04-26 16:52 42.94040 -86.40337 31317 ft 460 kts 86°
2026-04-26 16:52 42.94165 -86.35958 31627 ft 462 kts 86°
2026-04-26 16:53 42.94290 -86.31567 31901 ft 465 kts 86°
2026-04-26 16:53 42.94413 -86.27199 32172 ft 467 kts 86°
2026-04-26 16:53 42.94537 -86.22755 32487 ft 469 kts 86°
2026-04-26 16:53 42.94659 -86.18304 32857 ft 469 kts 86°
2026-04-26 16:54 42.94777 -86.13873 33326 ft 466 kts 86°
2026-04-26 16:54 42.94895 -86.09455 33694 ft 465 kts 86°
2026-04-26 16:54 42.95010 -86.05037 34030 ft 465 kts 85°
2026-04-26 16:54 42.95125 -86.00631 34333 ft 465 kts 85°
2026-04-26 16:55 42.95241 -85.96207 34604 ft 465 kts 86°
2026-04-26 16:55 42.95352 -85.91796 34852 ft 465 kts 86°
2026-04-26 16:55 42.95459 -85.87382 35156 ft 464 kts 86°
2026-04-26 16:55 42.95567 -85.82951 35232 ft 471 kts 86°
2026-04-26 16:56 42.95787 -85.73950 35259 ft 483 kts 86°
2026-04-26 16:56 42.95889 -85.69339 35241 ft 487 kts 86°
2026-04-26 16:57 42.96098 -85.60097 35166 ft 486 kts 86°
2026-04-26 16:57 42.96401 -85.46225 35185 ft 488 kts 86°
2026-04-26 16:58 42.96570 -85.38533 35179 ft 485 kts 86°
2026-04-26 16:59 42.96879 -85.23211 35194 ft 485 kts 86°
2026-04-26 17:00 42.97288 -85.04773 35207 ft 483 kts 79°
2026-04-26 17:00 42.99057 -84.96037 35220 ft 477 kts 68°
2026-04-26 17:00 43.00086 -84.91735 35201 ft 476 kts 68°
2026-04-26 17:01 43.02108 -84.83173 35204 ft 476 kts 68°
2026-04-26 17:01 43.04130 -84.74554 35203 ft 476 kts 69°
2026-04-26 17:02 43.06145 -84.65914 35212 ft 476 kts 69°
2026-04-26 17:02 43.08140 -84.57314 35206 ft 473 kts 69°
2026-04-26 17:03 43.10128 -84.48720 35212 ft 474 kts 69°
2026-04-26 17:03 43.12100 -84.40155 35218 ft 475 kts 69°
2026-04-26 17:04 43.14081 -84.31517 35212 ft 475 kts 69°
2026-04-26 17:04 43.16053 -84.22891 35214 ft 472 kts 69°
2026-04-26 17:05 43.18009 -84.14298 35217 ft 473 kts 69°
2026-04-26 17:05 43.19965 -84.05685 35219 ft 473 kts 69°
2026-04-26 17:06 43.21910 -83.97066 35219 ft 473 kts 69°
2026-04-26 17:06 43.23706 -83.88439 35217 ft 476 kts 79°
2026-04-26 17:07 43.24037 -83.79331 35228 ft 480 kts 86°
2026-04-26 17:07 43.24239 -83.70202 35215 ft 479 kts 85°
2026-04-26 17:08 43.24448 -83.61071 35215 ft 479 kts 85°
2026-04-26 17:08 43.24654 -83.51939 35218 ft 479 kts 86°
2026-04-26 17:09 43.24822 -83.44355 35217 ft 479 kts 86°
2026-04-26 17:09 43.25051 -83.33717 35216 ft 479 kts 86°
2026-04-26 17:10 43.25241 -83.24569 35212 ft 479 kts 86°
2026-04-26 17:10 43.25424 -83.15425 35217 ft 479 kts 86°
2026-04-26 17:11 43.25601 -83.06295 35210 ft 479 kts 86°
2026-04-26 17:11 43.25770 -82.97157 35212 ft 479 kts 86°
2026-04-26 17:12 43.26012 -82.83489 35223 ft 479 kts 86°
2026-04-26 17:13 43.26242 -82.69783 35232 ft 479 kts 86°
2026-04-26 17:14 43.26523 -82.56094 35236 ft 479 kts 86°
2026-04-26 17:14 43.26798 -82.42443 35240 ft 479 kts 86°
2026-04-26 17:15 43.27058 -82.28752 35242 ft 479 kts 86°
2026-04-26 17:16 43.27220 -82.19616 35241 ft 478 kts 86°
2026-04-26 17:16 43.27375 -82.10494 35237 ft 478 kts 86°
2026-04-26 17:17 43.27522 -82.01365 35234 ft 478 kts 86°
2026-04-26 17:17 43.27663 -81.92225 35226 ft 479 kts 86°
2026-04-26 17:18 43.27796 -81.83096 35229 ft 479 kts 86°
2026-04-26 17:18 43.27923 -81.73960 35223 ft 479 kts 86°
2026-04-26 17:19 43.28098 -81.60249 35217 ft 477 kts 86°
2026-04-26 17:19 43.28206 -81.51143 35219 ft 478 kts 86°
2026-04-26 17:20 43.28273 -81.45112 35219 ft 478 kts 86°
2026-04-26 17:20 43.28401 -81.32963 35220 ft 478 kts 86°
2026-04-26 17:21 43.28494 -81.23844 35215 ft 477 kts 86°
2026-04-26 17:21 43.28570 -81.14746 35217 ft 477 kts 86°
2026-04-26 17:22 43.28642 -81.05630 35227 ft 478 kts 87°
2026-04-26 17:22 43.28709 -80.96504 35219 ft 478 kts 87°
2026-04-26 17:23 43.28778 -80.87380 35211 ft 478 kts 87°
2026-04-26 17:23 43.28830 -80.78254 35225 ft 478 kts 87°
2026-04-26 17:24 43.28887 -80.69130 35224 ft 478 kts 87°
2026-04-26 17:24 43.28923 -80.60007 35225 ft 478 kts 87°
2026-04-26 17:25 43.28947 -80.50939 35219 ft 479 kts 87°
2026-04-26 17:25 43.28968 -80.41808 35225 ft 478 kts 87°
2026-04-26 17:26 43.28992 -80.32684 35226 ft 478 kts 87°
2026-04-26 17:26 43.29004 -80.23558 35228 ft 478 kts 87°
2026-04-26 17:27 43.29010 -80.14429 35233 ft 479 kts 87°
2026-04-26 17:27 43.29001 -80.05291 35234 ft 478 kts 87°
2026-04-26 17:28 43.29003 -79.97697 35233 ft 479 kts 87°
2026-04-26 17:28 43.28989 -79.88575 35235 ft 478 kts 87°
2026-04-26 17:29 43.28966 -79.80909 35239 ft 479 kts 88°
2026-04-26 17:29 43.28919 -79.70293 35249 ft 479 kts 87°
2026-04-26 17:30 43.28894 -79.61155 35273 ft 479 kts 88°
2026-04-26 17:30 43.28838 -79.52016 35263 ft 479 kts 87°
2026-04-26 17:31 43.28822 -79.42885 35256 ft 478 kts 87°
2026-04-26 17:31 43.28764 -79.33745 35250 ft 479 kts 88°
2026-04-26 17:32 43.28671 -79.24619 35242 ft 478 kts 87°